IZ5MMH-8 Weather Reports


Display with metric or nautical units.
time (UTC)temp
F
wind
direction
speed
MPH
gust
MPH
rain 1hr
in
rain 24hr
in
rain mn
in
humidity
%
barometer
mb
20260507020604 50 0.0 0.0 0.00 0.00 0.00 1014.5
20260507015604 51 0.0 0.0 0.00 0.00 0.00 1014.5
20260507014604 51 0.0 0.0 0.00 0.00 0.00 1014.5
20260507013604 51 0.0 0.0 0.00 0.00 0.00 1014.3
20260507012604 52 0.0 0.0 0.00 0.00 0.00 1014.3
20260507011603 52 0.0 0.0 0.00 0.00 0.00 1014.2
20260507010604 52 0.0 0.0 0.00 0.00 0.00 1014.3
20260507005603 53 0.0 0.0 0.00 0.00 0.00 1014.4
20260507004603 53 0.0 0.0 0.00 0.00 0.00 1014.4
20260507003603 53 0.0 0.0 0.00 0.00 0.00 1014.6
20260507002603 53 0.0 0.0 0.00 0.00 0.00 1014.4
20260507001603 54 0.0 0.0 0.00 0.00 0.00 1014.6
20260507000603 54 0.0 0.0 0.00 0.00 0.00 1014.7
20260506235604 54 0.0 0.0 0.00 0.00 0.00 1014.4
20260506234604 55 0.0 0.0 0.00 0.00 0.00 1014.4
20260506233604 58 0.0 0.0 0.00 0.00 0.00 1014.4
20260506232604 60 0.0 0.0 0.00 0.00 0.00 1014.3
20260506231603 61 0.0 0.0 0.00 0.00 0.00 1014.0
20260506230603 61 0.0 0.0 0.00 0.00 0.00 1013.8
20260506225604 61 0.0 0.0 0.00 0.00 0.00 1013.9
20260506224603 61 0.0 0.0 0.00 0.00 0.00 1014.0
20260506223603 60 0.0 0.0 0.00 0.00 0.00 1014.1
20260506222603 60 0.0 0.0 0.00 0.00 0.00 1014.3
20260506221604 61 0.0 0.0 0.00 0.00 0.00 1014.2
20260506220604 61 0.0 0.0 0.00 0.00 0.00 1014.2
20260506215604 61 0.0 0.0 0.00 0.00 0.00 1014.2
20260506214603 61 0.0 0.0 0.00 0.00 0.00 1014.1
20260506213605 61 0.0 0.0 0.00 0.00 0.00 1014.2
20260506212603 61 0.0 0.0 0.00 0.00 0.00 1014.2
20260506211604 61 0.0 0.0 0.00 0.00 0.00 1014.1
20260506210603 62 0.0 0.0 0.00 0.00 0.00 1014.0
20260506205604 63 0.0 0.0 0.00 0.00 0.00 1014.0
20260506204603 63 0.0 0.0 0.00 0.00 0.00 1014.0
20260506203603 63 0.0 0.0 0.00 0.00 0.00 1014.0
20260506202603 63 0.0 0.0 0.00 0.00 0.00 1013.9
20260506201603 63 0.0 0.0 0.00 0.00 0.00 1013.7
20260506200603 63 0.0 0.0 0.00 0.00 0.00 1013.5
20260506195603 63 0.0 0.0 0.00 0.00 0.00 1013.4
20260506194605 63 0.0 0.0 0.00 0.00 0.00 1013.3
20260506193603 63 0.0 0.0 0.00 0.00 0.00 1013.2
20260506192604 63 0.0 0.0 0.00 0.00 0.00 1013.2
20260506191603 63 0.0 0.0 0.00 0.00 0.00 1013.0
20260506190603 63 0.0 0.0 0.00 0.00 0.00 1012.8
20260506185603 63 0.0 0.0 0.00 0.00 0.00 1012.7
20260506184603 63 0.0 0.0 0.00 0.00 0.00 1012.6
20260506183603 63 0.0 0.0 0.00 0.00 0.00 1012.6
20260506182603 63 0.0 0.0 0.00 0.00 0.00 1012.3
20260506181603 64 0.0 0.0 0.00 0.00 0.00 1012.3
20260506180602 64 0.0 0.0 0.00 0.00 0.00 1012.4
20260506175603 65 0.0 0.0 0.00 0.00 0.00 1012.3
20260506174603 65 0.0 0.0 0.00 0.00 0.00 1012.2
20260506173602 65 0.0 0.0 0.00 0.00 0.00 1012.3
20260506172602 66 0.0 0.0 0.00 0.00 0.00 1012.3
20260506171602 66 0.0 0.0 0.00 0.00 0.00 1012.0
20260506170603 67 0.0 0.0 0.00 0.00 0.00 1012.0
20260506165602 68 0.0 0.0 0.00 0.00 0.00 1012.0
20260506164603 69 0.0 0.0 0.00 0.00 0.00 1012.1
20260506163603 69 0.0 0.0 0.00 0.00 0.00 1012.2
20260506162602 70 0.0 0.0 0.00 0.00 0.00 1012.1
20260506161603 70 0.0 0.0 0.00 0.00 0.00 1012.1
20260506160602 71 0.0 0.0 0.00 0.00 0.00 1012.2
20260506155602 70 0.0 0.0 0.00 0.00 0.00 1012.3
20260506153859 71 0.0 0.0 0.00 0.00 0.00 1012.1
20260506152900 71 0.0 0.0 0.00 0.00 0.00 1012.2
20260506151859 74 0.0 0.0 0.00 0.00 0.00 1012.0
20260506150900 78 0.0 0.0 0.00 0.00 0.00 1011.8
20260506145900 78 0.0 0.0 0.00 0.00 0.00 1011.8
20260506144859 79 0.0 0.0 0.00 0.00 0.00 1011.8
20260506143859 84 0.0 0.0 0.00 0.00 0.00 1011.7
20260506142859 86 0.0 0.0 0.00 0.00 0.00 1011.6
20260506141859 77 0.0 0.0 0.00 0.00 0.00 1012.0
20260506140859 75 0.0 0.0 0.00 0.00 0.00 1012.0
20260506135859 80 0.0 0.0 0.00 0.00 0.00 1012.0
20260506134859 82 0.0 0.0 0.00 0.00 0.00 1011.9
20260506133900 78 0.0 0.0 0.00 0.00 0.00 1012.0
20260506132859 79 0.0 0.0 0.00 0.00 0.00 1012.0
20260506131859 82 0.0 0.0 0.00 0.00 0.00 1012.0
20260506130900 86 0.0 0.0 0.00 0.00 0.00 1012.0
20260506125859 83 0.0 0.0 0.00 0.00 0.00 1012.0
20260506124859 80 0.0 0.0 0.00 0.00 0.00 1012.1
20260506123900 75 0.0 0.0 0.00 0.00 0.00 1012.4
20260506122859 71 0.0 0.0 0.00 0.00 0.00 1012.6
20260506121859 72 0.0 0.0 0.00 0.00 0.00 1012.6
20260506120859 73 0.0 0.0 0.00 0.00 0.00 1012.6
20260506115859 75 0.0 0.0 0.00 0.00 0.00 1012.6
20260506114859 74 0.0 0.0 0.00 0.00 0.00 1012.6
20260506113859 74 0.0 0.0 0.00 0.00 0.00 1012.6
20260506112859 77 0.0 0.0 0.00 0.00 0.00 1012.4
20260506111859 75 0.0 0.0 0.00 0.00 0.00 1012.4
20260506110900 68 0.0 0.0 0.00 0.00 0.00 1012.8
20260506105859 68 0.0 0.0 0.00 0.00 0.00 1012.8
20260506104859 68 0.0 0.0 0.00 0.00 0.00 1012.7
20260506103859 68 0.0 0.0 0.00 0.00 0.00 1012.7
20260506102859 68 0.0 0.0 0.00 0.00 0.00 1012.7
20260506101859 71 0.0 0.0 0.00 0.00 0.00 1012.5
20260506100859 69 0.0 0.0 0.00 0.00 0.00 1012.5
20260506095859 69 0.0 0.0 0.00 0.00 0.00 1012.6
20260506094859 67 0.0 0.0 0.00 0.00 0.00 1012.8
20260506093900 68 0.0 0.0 0.00 0.00 0.00 1012.7
20260506092859 69 0.0 0.0 0.00 0.00 0.00 1012.6
20260506091859 72 0.0 0.0 0.00 0.00 0.00 1012.5
20260506090859 69 0.0 0.0 0.00 0.00 0.00 1012.4
20260506085859 66 0.0 0.0 0.00 0.00 0.00 1012.5
20260506084859 65 0.0 0.0 0.00 0.00 0.00 1012.5
20260506083859 66 0.0 0.0 0.00 0.00 0.00 1012.4
20260506082858 66 0.0 0.0 0.00 0.00 0.00 1012.4
20260506081859 66 0.0 0.0 0.00 0.00 0.00 1012.2
20260506080858 65 0.0 0.0 0.00 0.00 0.00 1012.1
20260506072859 66 0.0 0.0 0.00 0.00 0.00 1012.1
20260506071859 66 0.0 0.0 0.00 0.00 0.00 1012.1
20260506070858 64 0.0 0.0 0.00 0.00 0.00 1012.2
20260506061901 63 0.0 0.0 0.00 0.00 0.00 1012.3
20260506060858 63 0.0 0.0 0.00 0.00 0.00 1012.4
20260506050858 62 0.0 0.0 0.00 0.00 0.00 1012.2
20260506044859 62 0.0 0.0 0.00 0.00 0.00 1011.9
20260506043858 61 0.0 0.0 0.00 0.00 0.00 1011.8
20260506042858 61 0.0 0.0 0.00 0.00 0.00 1011.8
20260506041859 61 0.0 0.0 0.00 0.00 0.00 1011.8
20260506040859 61 0.0 0.0 0.00 0.00 0.00 1011.9
20260506035858 61 0.0 0.0 0.00 0.00 0.00 1011.8
20260506034858 61 0.0 0.0 0.00 0.00 0.00 1011.8
20260506033858 60 0.0 0.0 0.00 0.00 0.00 1011.6
20260506032858 60 0.0 0.0 0.00 0.00 0.00 1011.6
20260506031900 60 0.0 0.0 0.00 0.00 0.00 1011.8
20260506030858 60 0.0 0.0 0.00 0.00 0.00 1011.8
20260506025858 60 0.0 0.0 0.00 0.00 0.00 1011.9
20260506024858 60 0.0 0.0 0.00 0.00 0.00 1012.3
20260506023858 60 0.0 0.0 0.00 0.00 0.00 1012.3
20260506022858 60 0.0 0.0 0.00 0.00 0.00 1012.4
20260506021858 60 0.0 0.0 0.00 0.00 0.00 1012.3